Weather History for Jacksonville, IL

Change the Weather History Date:

Monday, January 28, 2013

  Actual Average (KSPI) Record (KSPI)
Temperature  
Mean Temperature 58 °F 27 °F  
Max Temperature 68 °F 35 °F 67 °F (1970)
Min Temperature 49 °F 19 °F -17 °F (1963)
Degree Days  
Heating Degree Days 6 38  
Month to date heating degree days 1071  
Since 1 July heating degree days 3211  
Cooling Degree Days 0 0  
Month to date cooling degree days 0  
Year to date cooling degree days 0  
Growing Degree Days 8 (Base 50)    
Moisture  
Dew Point 56 °F    
Average Humidity 90    
Maximum Humidity 97    
Minimum Humidity 76    
Precipitation  
Precipitation 0.01 in 0.06 in 1.15 in (1909)
Month to date precipitation 1.66  
Year to date precipitation 1.66  
Snow  
Snow 0.00 in 0.20 in 3.00 in (1974)
Month to date snowfall 5.8  
Since 1 July snowfall 12.0  
Snow Depth -    
Sea Level Pressure  
Sea Level Pressure 29.89 in    
Wind  
Wind Speed 10 mph (South)    
Max Wind Speed 18 mph    
Max Gust Speed 25 mph    
Visibility 7 miles    
Events      
T = Trace of Precipitation, MM = Missing Value Source: NWS Daily Summary

Daily Weather History Graph

Daily Weather History Graph

Search for Another Location

Airport:

Trip Planner

Search our weather history database for the weather conditions in past years. The results will help you decide how hot, cold, wet, or windy it might be!

Date:

Astronomy

Jan. 28, 2013 Rise Set
Actual Time 7:12 AM CST 5:16 PM CST
Civil Twilight 6:43 AM CST 5:44 PM CST
Nautical Twilight 6:11 AM CST 6:17 PM CST
Astronomical Twilight 5:39 AM CST 6:49 PM CST
Moon 7:10 PM CST 7:38 AM CST
Length of Visible Light 11h 01m
Length of Day
10h 03m
Full, 98% of the Moon is Illuminated
Jan 28
Full
Feb 3
Last Quarter
Feb 10
New
Feb 17
First Quarter
Feb 25
Full

Hourly Weather History & Observations

Time (CST) Temp. Dew Point Humidity Pressure Visibility Wind Dir Wind Speed Gust Speed Precip Events Conditions
12:15 AM 49.3 °F 48.2 °F 96% 29.92 in 3.0 mi South 12.7 mph 19.6 mph N/A   Overcast
12:35 AM 49.5 °F 48.4 °F 96% 29.92 in 3.0 mi South 15.0 mph 19.6 mph N/A   Overcast
12:55 AM 49.8 °F 48.6 °F 95% 29.92 in 3.0 mi South 11.5 mph 17.3 mph N/A   Overcast
1:15 AM 50.2 °F 49.1 °F 96% 29.92 in 4.0 mi South 11.5 mph 16.1 mph N/A   Mostly Cloudy
1:35 AM 50.4 °F 49.1 °F 95% 29.92 in 4.0 mi South 10.4 mph - N/A   Mostly Cloudy
1:55 AM 50.9 °F 49.6 °F 95% 29.92 in 4.0 mi South 11.5 mph - N/A   Mostly Cloudy
2:15 AM 51.3 °F 50.0 °F 95% 29.92 in 4.0 mi South 11.5 mph - N/A   Overcast
2:35 AM 51.8 °F 50.0 °F 94% 29.92 in 4.0 mi South 9.2 mph - N/A   Overcast
2:55 AM 51.8 °F 50.4 °F 95% 29.91 in 4.0 mi South 11.5 mph 17.3 mph N/A   Overcast
3:15 AM 51.8 °F 50.4 °F 95% 29.91 in 4.0 mi South 8.1 mph - N/A   Overcast
3:35 AM 51.8 °F 50.4 °F 95% 29.91 in 4.0 mi South 9.2 mph - N/A   Overcast
3:55 AM 52.0 °F 50.9 °F 96% 29.90 in 4.0 mi South 9.2 mph - N/A   Overcast
4:15 AM 52.2 °F 50.9 °F 95% 29.90 in 3.0 mi South 10.4 mph - N/A   Overcast
4:35 AM 52.3 °F 51.1 °F 95% 29.90 in 4.0 mi South 12.7 mph - N/A   Light Drizzle
4:55 AM 52.7 °F 51.4 °F 95% 29.90 in 4.0 mi South 10.4 mph - N/A   Mostly Cloudy
5:15 AM 52.3 °F 51.3 °F 96% 29.90 in 3.0 mi South 12.7 mph - N/A   Overcast
5:35 AM 52.7 °F 51.8 °F 97% 29.90 in 3.0 mi South 12.7 mph - N/A   Overcast
5:55 AM 52.9 °F 51.8 °F 96% 29.90 in 4.0 mi South 6.9 mph 17.3 mph N/A   Overcast
6:15 AM 53.6 °F 52.2 °F 95% 29.90 in 4.0 mi South 10.4 mph - N/A   Overcast
6:35 AM 54.0 °F 52.7 °F 95% 29.91 in 5.0 mi South 9.2 mph 17.3 mph N/A   Overcast
6:55 AM 54.3 °F 52.7 °F 94% 29.91 in 5.0 mi South 8.1 mph - N/A   Overcast
7:15 AM 54.5 °F 52.7 °F 94% 29.92 in 5.0 mi South 6.9 mph - N/A   Overcast
7:35 AM 54.5 °F 52.9 °F 94% 29.92 in 4.0 mi South 9.2 mph - N/A   Overcast
7:55 AM 54.5 °F 52.9 °F 94% 29.92 in 4.0 mi South 6.9 mph - N/A   Overcast
8:15 AM 54.9 °F 53.2 °F 94% 29.93 in 4.0 mi South 6.9 mph - N/A   Overcast
8:35 AM 55.2 °F 53.6 °F 94% 29.93 in 4.0 mi SSW 6.9 mph - N/A   Overcast
8:55 AM 55.9 °F 54.3 °F 94% 29.93 in 5.0 mi South 6.9 mph - N/A   Overcast
9:15 AM 57.0 °F 55.0 °F 93% 29.93 in 5.0 mi South 5.8 mph - N/A   Mostly Cloudy
9:35 AM 57.9 °F 55.6 °F 92% 29.93 in 5.0 mi SSW 8.1 mph - N/A   Overcast
9:55 AM 59.0 °F 56.3 °F 91% 29.94 in 7.0 mi South 6.9 mph - N/A   Overcast
10:15 AM 59.0 °F 56.5 °F 91% 29.94 in 7.0 mi South 5.8 mph - N/A   Overcast
10:35 AM 59.4 °F 56.7 °F 91% 29.94 in 7.0 mi South 5.8 mph - N/A   Overcast
10:55 AM 60.8 °F 57.2 °F 88% 29.94 in 7.0 mi SSW 5.8 mph - N/A   Overcast
11:15 AM 60.3 °F 57.4 °F 90% 29.94 in 7.0 mi South 6.9 mph - N/A   Overcast
11:35 AM 61.0 °F 57.9 °F 90% 29.93 in 7.0 mi South 8.1 mph - N/A   Overcast
11:55 AM 62.6 °F 59.0 °F 88% 29.92 in 10.0 mi South 9.2 mph - N/A   Mostly Cloudy
12:15 PM 63.1 °F 59.2 °F 87% 29.91 in 10.0 mi South 9.2 mph - N/A   Mostly Cloudy
12:35 PM 63.0 °F 58.8 °F 86% 29.90 in 10.0 mi South 8.1 mph - N/A   Scattered Clouds
12:55 PM 63.0 °F 59.2 °F 87% 29.90 in 10.0 mi South 6.9 mph - N/A   Mostly Cloudy
1:15 PM 64.8 °F 60.3 °F 85% 29.89 in 10.0 mi South 8.1 mph - N/A   Mostly Cloudy
1:35 PM 64.6 °F 60.1 °F 85% 29.88 in 10.0 mi South 5.8 mph - N/A   Mostly Cloudy
1:55 PM 66.4 °F 60.8 °F 82% 29.88 in 10.0 mi South 6.9 mph - N/A   Scattered Clouds
2:15 PM 67.1 °F 60.8 °F 80% 29.88 in 10.0 mi South 6.9 mph - N/A   Scattered Clouds
2:35 PM 68.0 °F 61.0 °F 78% 29.87 in 10.0 mi South 4.6 mph - N/A   Scattered Clouds
2:55 PM 68.9 °F 61.2 °F 76% 29.87 in 10.0 mi South 5.8 mph - N/A   Scattered Clouds
3:15 PM 68.5 °F 61.2 °F 77% 29.87 in 10.0 mi South 6.9 mph - N/A   Scattered Clouds
3:35 PM 68.9 °F 61.0 °F 76% 29.87 in 10.0 mi South 8.1 mph - N/A   Scattered Clouds
3:55 PM 68.0 °F 60.8 °F 78% 29.87 in 10.0 mi South 8.1 mph - N/A   Scattered Clouds
4:15 PM 67.6 °F 60.4 °F 78% 29.87 in 10.0 mi SSE 6.9 mph - N/A   Scattered Clouds
4:35 PM 66.4 °F 59.9 °F 80% 29.86 in 10.0 mi SE 5.8 mph - N/A   Clear
4:55 PM 64.8 °F 59.5 °F 83% 29.86 in 10.0 mi SSE 5.8 mph - N/A   Clear
5:15 PM 61.9 °F 57.9 °F 87% 29.86 in 10.0 mi SE 6.9 mph - N/A   Clear
5:35 PM 61.9 °F 59.0 °F 90% 29.86 in 10.0 mi SE 6.9 mph - N/A   Clear
5:55 PM 60.8 °F 58.1 °F 91% 29.86 in 7.0 mi SE 9.2 mph - N/A   Clear
6:15 PM 59.9 °F 57.7 °F 93% 29.86 in 7.0 mi SE 8.1 mph - N/A   Clear
6:35 PM 59.9 °F 57.7 °F 93% 29.86 in 7.0 mi SE 8.1 mph - N/A   Clear
6:55 PM 59.9 °F 58.1 °F 94% 29.86 in 7.0 mi SE 11.5 mph 17.3 mph N/A   Clear
7:15 PM 60.8 °F 58.8 °F 93% 29.86 in 7.0 mi SSE 13.8 mph - N/A   Clear
7:35 PM 60.8 °F 58.6 °F 93% 29.86 in 7.0 mi SSE 11.5 mph 18.4 mph N/A   Clear
7:55 PM 61.3 °F 59.0 °F 92% 29.86 in 10.0 mi SSE 17.3 mph 20.7 mph N/A   Clear
8:15 PM 62.1 °F 59.0 °F 90% 29.85 in 10.0 mi SSE 13.8 mph 19.6 mph N/A   Clear
8:35 PM 62.2 °F 59.0 °F 89% 29.85 in 10.0 mi South 16.1 mph 21.9 mph N/A   Scattered Clouds
8:55 PM 62.2 °F 59.0 °F 89% 29.84 in 10.0 mi SSE 13.8 mph 19.6 mph N/A   Clear
9:15 PM 61.9 °F 58.5 °F 89% 29.84 in 7.0 mi South 13.8 mph 21.9 mph N/A   Clear
9:35 PM 61.7 °F 58.6 °F 90% 29.84 in 7.0 mi South 15.0 mph 21.9 mph N/A   Clear
9:55 PM 61.3 °F 58.6 °F 91% 29.84 in 7.0 mi South 15.0 mph 20.7 mph N/A   Clear
10:15 PM 61.3 °F 58.8 °F 91% 29.83 in 7.0 mi South 17.3 mph 25.3 mph N/A   Clear
10:35 PM 61.3 °F 58.8 °F 91% 29.83 in 7.0 mi South 17.3 mph 23.0 mph N/A   Clear
10:55 PM 61.3 °F 59.0 °F 92% 29.83 in 7.0 mi South 15.0 mph 23.0 mph N/A   Mostly Cloudy
11:15 PM 61.7 °F 59.0 °F 91% 29.82 in 7.0 mi South 13.8 mph 21.9 mph N/A   Mostly Cloudy
11:35 PM 61.5 °F 59.0 °F 91% 29.82 in 7.0 mi South 18.4 mph 25.3 mph N/A   Scattered Clouds
11:55 PM 61.9 °F 59.0 °F 90% 29.81 in 7.0 mi South 17.3 mph - N/A   Scattered Clouds